Terminal Aerodrome Forecast
Issued by NWS

Home | Current Version | Previous Version | Text Only | Print | Product List | Glossary On
Versions: 1 2 3 4 5 6 7 8 9 10 11 12 13 14 15 16
000
FTUS46 KSEW 260520
TAFHQM
TAF
KHQM 260520Z 2606/2706 27012KT 6SM BR OVC008
     FM260800 27008KT 4SM BR OVC007
     FM261800 24010KT 6SM BR OVC015
     FM262000 26014KT P6SM SCT020
      TEMPO 2621/2624 BKN020=

USA.gov is the U.S. government's official web portal to all federal, state and local government web resources and services.